Regional Weather Roundup
Issued by NWS

Current Version | Previous Version | Text Only | Print | Product List | Glossary On
Versions: 1 2 3 4 5 6 7 8 9 10 11 12 13 14 15 16 17 18 19 20 21 22 23 24 25 26 27 28 29 30 31 32 33 34 35 36 37 38 39 40 41 42 43 44 45 46 47 48 49 50
089
ASUS46 KSEW 141410
RWRWA

WASHINGTON REGIONAL WEATHER ROUNDUP
NATIONAL WEATHER SERVICE SEATTLE WA
600 AM PST SUN FEB 14 2016

NOTE:"FAIR" INDICATES FEW OR NO CLOUDS BELOW 12,000 FEET WITH NO
SIGNIFICANT WEATHER AND/OR OBSTRUCTIONS TO VISIBILITY.

WAZ505-507>509-141500-
SEATTLE, TACOMA, EVERETT, AND VICINITY

CITY           SKY/WX    TMP DP  RH WIND       PRES   REMARKS
EVERETT        LGT RAIN  47  45  93 S10       30.10S FOG
BOEING FIELD   NOT AVBL
RENTON         LGT RAIN  51  47  86 SE5       30.11S
SEATAC AIRPORT LGT RAIN  48  46  93 SW8       30.11S
JBLM-MCCHORD   LGT RAIN  47  47 100 S2        30.12S
PUYALLUP       DRIZZLE   48  48 100 CALM      30.11F
BREMERTON      CLOUDY    46  45  93 S9        30.14S
JBLM-FT LEWIS  LGT RAIN  47  47 100 MISG      30.11S
TACOMA NARROWS LGT RAIN  48  46  93 SW5       30.12S
$$

WAZ001-503-506-510-514-515-141500-
NORTH INTERIOR

CITY           SKY/WX    TMP DP  RH WIND       PRES   REMARKS
BELLINGHAM     CLOUDY    48  44  86 SE5       30.09S
FRIDAY HARBOR  LGT RAIN  47  45  93 SE6       30.10R
EASTSOUND      LGT RAIN  48  46  93 S8        30.07S
PORT ANGELES   CLOUDY    45  43  93 CALM      30.08S
EDIZ HOOK      CLOUDY    47  45  92 CALM      30.09R
PORT TOWNSEND  FOG       45  45 100 CALM      30.10S VSB 3/4
NAS WHIDBEY    LGT RAIN  48  47  96 SE10      30.14R
ARLINGTON      CLOUDY    48  41  76 E5        30.13R
BURLINGTON     CLOUDY    45  43  93 NE6       30.11S
$$

WAZ020-022-039-040-504-511-512-141500-
SOUTHWEST INTERIOR

CITY           SKY/WX    TMP DP  RH WIND       PRES   REMARKS
SHELTON        LGT RAIN  48  47  96 CALM      30.09R
OLYMPIA        LGT RAIN  47  45  93 SW8       30.12F
CHEHALIS       LGT RAIN  46  46 100 S9        30.13F
KELSO          CLOUDY    48  45  87 SE8       30.18F
VANCOUVER      LGT RAIN  50  48  93 S6        30.18F
SCAPPOOSE, OR  LGT RAIN  48  47  96 CALM      30.17F FOG
PORTLAND, OR   LGT RAIN  51  48  89 S10G20    30.18F
$$

WAZ021-516-517-141500-
WASHINGTON COAST

CITY           SKY/WX    TMP DP  RH WIND       PRES   REMARKS
FORKS          LGT RAIN  49  47  93 S3        30.08R FOG
HOQUIAM        CLOUDY    50  50 100 CALM      30.10F FOG
ASTORIA, OR    LGT RAIN  53  52  96 S15       30.12F FOG
$$

WAZ019-023-024-040-518-519-141500-
CASCADE MOUNTAINS AND COLUMBIA GORGE

CITY           SKY/WX    TMP DP  RH WIND       PRES   REMARKS
STAMPEDE PASS  NOT AVBL
TROUTDALE, OR  LGT RAIN  51  48  89 S8        30.19F
THE DALLES, OR CLOUDY    42  39  89 CALM      30.16F
$$

WAZ026-027-041>044-520-521-141500-
EAST SLOPES

CITY           SKY/WX    TMP DP  RH WIND       PRES   REMARKS
OMAK           CLOUDY    36  32  85 N5        30.07R
WENATCHEE      CLOUDY    36  32  85 E8        30.04R
ELLENSBURG     CLOUDY    36  31  82 SE5       30.04S
YAKIMA         CLOUDY    35  31  85 CALM      30.10R
$$

WAZ028-034-035-141500-
COLUMBIA BASIN

CITY           SKY/WX    TMP DP  RH WIND       PRES   REMARKS
EPHRATA        CLOUDY    34  34 100 N5        30.06R
MOSES LAKE     CLOUDY    40  35  83 CALM      30.06S
PASCO          CLOUDY    49  41  74 SW15G23   30.11F
HERMISTON, OR  LGT RAIN  47  41  80 SW5       30.13S
$$

WAZ036>038-141500-
NORTHEAST WASHINGTON

CITY           SKY/WX    TMP DP  RH WIND       PRES   REMARKS
SPOKANE GEIGER CLOUDY    38  36  92 SW10      30.04F
SPOKANE FELTS  CLOUDY    41  36  82 VRB3      30.07S
FAIRCHILD AFB  CLOUDY    37  37 100 SW9       30.04S
COEURDALENE,ID CLOUDY    39  36  87 CALM      30.04R
DEER PARK      CLOUDY    37  35  92 SE5       30.06S
$$

WAZ029>033-141500-
SOUTHEAST WASHINGTON

CITY           SKY/WX    TMP DP  RH WIND       PRES   REMARKS
PULLMAN        CLOUDY    42  37  82 W12       30.08F
LEWISTON, ID   CLOUDY    42  37  82 E6        30.08S
WALLA WALLA    LGT RAIN  48  42  80 S13       30.13S
PENDLETON, OR  LGT RAIN  45  41  86 E6        30.13S
$$




USA.gov is the U.S. government's official web portal to all federal, state and local government web resources and services.